Lapse_Rate
2.8 1.8 2.1 1.8 1.1 -0.0 0.0 -0.6 -0.1 1.3 1.9 3.8 5.3 5.2 4.3 3.4 3.0 2.6 2.7 2.8 2.7 3.0 2.7 2.5 2.4 2.1 2.1 2.0 1.9 2.1 2.0 2.0 2.1 2.4 2.6 2.5 2.7 2.8 2.8 2.9 2.8 3.0 2.9
3.2 2.2 2.3 1.9 1.5 0.6 0.2 0.3 0.3 0.5 1.4 3.3 3.9 5.0 4.3 3.6 3.2 2.5 2.8 2.7 2.6 3.1 2.8 2.6 2.4 2.3 2.2 2.0 1.9 2.1 2.3 2.3 2.2 2.1 2.1 2.1 2.5 2.8 3.2 3.2 3.3 2.9 3.1
3.6 3.1 2.7 2.3 1.7 1.3 1.0 1.1 1.2 1.7 1.8 3.6 3.9 4.5 4.5 3.6 3.3 2.7 2.6 2.5 2.1 2.8 1.9 2.5 2.5 2.8 2.7 2.5 2.2 2.2 2.2 2.1 2.0 2.0 2.1 2.2 2.4 2.6 2.9 3.2 3.7 4.7 4.9
5.0 3.9 3.6 2.7 2.2 2.0 1.9 1.7 2.0 2.3 3.5 4.0 3.7 3.7 4.3 4.3 3.5 3.0 2.7 2.5 2.3 2.8 3.0 3.2 2.9 2.0 2.6 2.9 2.7 2.5 2.1 2.1 2.1 2.1 2.0 2.1 2.4 2.8 3.3 3.7 4.4 4.9 6.0
6.1 4.7 4.0 3.1 2.3 2.6 2.5 2.4 2.6 3.0 4.2 4.7 4.2 3.8 3.7 4.1 3.7 3.7 3.0 2.9 2.6 3.5 3.7 3.1 2.7 2.7 2.0 2.4 3.0 3.0 2.3 2.1 2.0 2.0 2.0 2.1 2.3 2.7 2.9 3.5 3.4 3.9 6.0
6.3 5.7 5.0 3.5 2.6 3.2 3.2 2.7 3.2 2.4 4.3 5.2 6.8 5.0 3.1 4.2 4.2 3.7 3.7 3.8 2.9 3.1 3.6 4.2 3.7 2.7 2.9 2.7 3.1 3.5 3.1 3.1 2.7 2.3 2.1 2.1 2.1 2.7 3.3 3.1 4.1 4.4 4.3
5.9 6.0 5.5 3.6 2.9 3.0 2.2 1.7 1.9 3.1 3.6 3.7 3.7 3.1 2.7 3.2 3.6 3.6 4.3 4.0 3.5 3.3 3.8 3.8 3.0 3.3 3.1 3.0 4.1 5.1 6.1 4.8 3.2 2.4 2.0 2.2 2.1 2.1 2.9 3.2 3.4 3.7 3.7
4.8 5.9 5.5 4.6 3.8 3.3 2.8 3.3 4.3 3.3 3.6 4.8 5.1 4.2 3.5 3.6 3.1 3.3 4.5 4.3 3.9 3.7 3.4 3.0 2.7 3.2 3.3 2.8 3.2 5.6 7.1 6.2 5.4 3.2 2.9 2.3 2.3 2.4 3.1 3.2 3.8 4.2 6.2
4.9 5.7 5.3 5.2 4.8 4.1 3.3 3.4 3.5 5.3 5.5 3.4 5.1 3.4 3.1 4.1 2.8 2.7 3.7 4.4 4.4 3.8 4.0 3.5 3.0 3.1 2.8 2.6 3.7 4.4 6.9 7.9 7.5 6.5 5.0 3.1 2.7 2.9 3.6 3.9 5.0 5.4 4.6
4.8 5.0 5.6 5.0 4.6 4.6 4.4 4.1 3.6 5.0 5.1 6.2 4.1 3.6 2.1 1.5 5.0 4.0 2.4 2.8 4.8 4.1 3.8 3.9 3.7 3.0 2.9 2.7 3.0 3.9 4.9 7.6 8.5 8.2 5.7 4.7 3.5 3.2 3.6 4.0 4.1 4.7 6.0
5.0 5.1 5.2 4.0 4.1 4.5 4.5 4.1 4.1 5.7 5.7 6.2 6.4 4.3 2.5 1.7 0.6 1.1 4.8 2.7 2.5 4.1 4.1 4.2 4.4 3.7 3.1 2.5 2.6 3.4 5.0 5.4 7.7 8.2 8.0 7.7 7.0 5.8 6.0 4.3 4.4 5.4 5.4
5.2 4.8 4.9 4.5 3.9 4.0 4.5 3.7 3.8 4.5 5.7 6.6 6.3 5.9 5.4 4.2 2.1 1.2 0.7 4.9 4.8 1.8 3.5 4.4 4.5 4.1 3.7 3.1 3.0 3.2 4.6 5.0 5.6 7.5 7.7 7.3 7.6 7.2 5.6 5.0 4.6 5.4 5.9
4.7 4.5 4.7 5.0 4.3 4.3 4.2 3.8 3.6 4.3 5.5 6.2 6.2 6.3 5.5 5.2 3.8 3.1 1.5 3.7 5.3 2.0 3.0 2.5 4.5 4.7 4.5 3.8 3.4 3.5 4.4 5.2 5.5 6.0 5.4 5.3 5.3 8.0 8.4 7.7 6.5 5.0 6.4
3.0 3.2 3.8 5.1 5.4 4.4 4.5 3.7 4.0 4.2 5.1 5.6 6.4 6.4 5.8 5.2 4.4 4.6 2.2 1.1 2.6 3.0 1.9 4.0 2.7 4.3 4.4 4.0 2.6 3.1 3.5 4.5 4.9 5.6 5.8 5.9 6.7 7.0 8.0 8.3 8.7 8.1 7.6
3.0 3.2 3.2 3.9 5.0 4.6 4.5 3.5 4.6 4.4 5.1 5.4 5.8 6.2 6.5 5.5 5.0 4.4 5.1 4.1 3.7 3.5 4.2 3.6 2.1 3.5 4.0 3.7 2.9 2.3 4.0 2.8 4.2 5.1 5.6 6.2 6.5 6.7 8.1 8.2 8.3 8.4 8.4
3.1 2.9 3.6 4.1 4.6 4.4 4.0 3.2 3.9 4.3 4.6 4.9 5.6 6.3 6.2 6.2 5.5 5.1 5.0 4.1 5.2 4.5 4.9 3.0 2.5 2.4 3.7 4.2 4.8 4.4 3.5 2.8 3.3 4.4 5.5 5.3 5.6 5.7 6.3 7.3 8.0 8.2 8.2
4.8 4.0 3.7 4.1 4.5 4.3 4.0 3.5 3.5 3.5 3.6 4.2 4.8 5.2 5.6 5.8 5.6 5.3 5.8 4.9 5.1 5.2 4.9 3.1 3.3 2.7 3.5 3.8 2.6 4.4 4.0 2.6 3.3 4.0 4.2 4.9 4.4 5.4 5.7 6.6 6.6 7.1 8.0
3.3 4.0 4.4 3.7 4.0 4.1 4.1 4.2 3.7 3.4 3.1 3.4 3.8 4.0 4.8 5.4 5.6 5.4 4.8 5.5 4.6 5.2 5.1 3.1 2.7 1.8 1.7 4.0 2.0 2.7 2.9 3.6 4.2 3.2 3.3 3.7 4.1 4.5 5.4 7.0 6.4 6.3 6.7
1.9 2.1 3.0 4.5 4.1 3.4 4.0 3.9 4.0 3.9 3.5 3.5 3.6 3.6 4.0 4.2 4.5 4.9 4.7 4.9 4.2 3.9 4.5 1.6 1.2 1.2 1.9 1.8 2.2 2.8 2.3 2.7 3.2 3.1 2.5 2.9 3.6 4.1 4.6 6.1 5.9 6.1 6.1
2.5 2.3 1.8 2.7 4.0 4.5 4.1 3.7 3.9 4.0 3.5 3.5 3.5 3.6 3.8 3.9 3.9 4.0 4.4 4.5 4.8 3.3 3.7 4.3 2.4 1.8 2.6 1.2 3.2 2.3 2.4 2.6 3.3 3.2 3.2 3.3 3.2 3.5 3.9 4.6 5.1 5.9 5.2
0.0 0.3 0.2 0.3 2.0 3.6 4.2 4.3 4.3 4.1 4.0 3.5 3.4 3.3 3.3 3.2 1.8 3.0 3.4 3.8 3.9 3.8 3.3 3.9 2.2 1.3 2.4 2.1 3.0 2.8 3.4 2.4 2.9 2.7 2.9 2.9 2.9 3.3 3.7 4.0 4.2 4.7 5.4
1.3 0.8 0.5 0.3 0.4 1.8 1.4 -0.3 2.7 4.5 4.4 3.9 3.3 3.1 3.2 0.3 0.1 -1.0 -0.7 0.3 2.4 2.5 3.4 3.1 2.3 3.0 3.2 1.3 3.0 3.7 3.8 3.2 3.0 1.3 2.7 2.4 2.9 3.5 3.9 4.1 3.9 3.9 4.6
1.6 1.0 0.4 1.0 1.0 0.7 -0.6 -1.6 -1.6 3.6 4.7 4.0 3.8 3.5 3.2 2.4 0.3 1.9 -1.3 -1.7 -1.0 -1.0 0.8 2.6 2.2 1.7 0.7 0.3 1.1 3.6 3.7 2.5 4.3 1.3 3.1 3.0 2.9 3.5 3.3 3.4 3.5 3.5 4.2
2.8 2.0 0.2 -0.2 0.0 -0.2 -1.9 -1.7 -2.7 0.4 3.6 3.9 3.9 3.7 3.0 2.5 1.4 1.5 1.5 0.4 1.6 0.5 0.2 1.1 3.3 1.2 0.7 -0.0 0.6 1.0 1.3 1.6 0.5 1.8 2.1 3.0 0.9 1.5 1.9 2.8 3.2 3.3 3.4
3.1 1.7 0.6 -0.6 -1.1 -1.9 -2.3 -2.7 -2.4 -0.6 1.4 1.2 1.4 1.5 2.3 2.0 0.0 -1.0 1.8 1.3 0.9 0.6 -0.6 -0.3 0.1 -0.7 -1.3 -0.0 1.0 1.0 1.2 1.4 1.2 1.9 1.5 2.2 2.0 2.2 1.8 1.5 2.7 2.9 2.8
2.5 -0.5 -1.1 -1.5 -1.9 -3.2 -3.0 -2.7 -2.8 -2.2 -0.7 -2.7 -1.6 -0.5 -1.0 0.7 -2.0 -2.2 1.7 1.3 0.5 -2.1 -2.2 -2.3 -1.8 -0.7 -0.2 0.2 0.3 2.0 0.7 2.3 2.3 3.2 2.4 3.4 3.1 3.0 4.1 2.7 2.0 2.4 2.5
Wind_Speed
11 15 14 15 14 17 16 13 13 13 13 14 13 11 16 17 19 18 20 20 20 19 18 18 18 18 18 18 18 18 17 17 17 17 17 16 16 16 17 17 18 18 18
12 10 11 11 13 16 17 15 14 8 7 11 9 11 17 18 18 20 21 19 19 18 17 18 18 18 18 18 17 17 16 17 17 18 17 17 16 16 16 16 16 17 18
20 15 11 10 14 17 18 15 11 10 6 9 6 8 17 18 18 19 20 21 20 18 20 18 18 17 16 17 17 16 17 17 17 17 17 17 16 16 17 15 16 15 16
24 16 12 11 18 16 17 9 10 8 7 6 4 5 10 16 18 20 19 19 19 17 21 19 17 19 18 17 17 17 17 17 17 17 17 17 17 17 16 16 16 15 15
25 16 12 12 19 12 11 10 9 10 8 7 6 5 7 9 15 17 18 19 19 21 20 19 21 20 20 18 18 18 18 17 17 17 17 17 17 17 17 16 16 16 16
23 14 12 12 16 10 9 8 10 3 7 9 9 6 5 8 13 13 16 18 19 21 21 18 19 20 20 19 19 19 18 18 18 18 18 18 18 17 17 17 16 16 16
19 12 11 12 11 13 12 9 4 8 4 5 5 3 4 3 9 8 16 16 16 19 22 22 22 21 20 19 18 20 19 20 20 20 19 19 19 19 18 18 18 18 18
15 14 15 14 17 11 13 12 11 5 3 8 7 5 3 2 1 5 8 8 13 20 19 21 21 23 23 22 21 22 22 22 22 21 21 20 19 19 19 20 19 19 18
15 17 14 14 16 13 12 13 10 16 10 5 12 5 3 5 3 1 5 8 12 10 18 21 22 23 25 26 25 23 25 24 23 22 22 21 21 20 19 19 18 17 19
19 17 16 15 16 13 14 16 11 12 10 13 6 4 3 5 6 3 3 3 10 13 13 18 22 24 25 24 26 24 25 26 26 24 24 23 23 22 21 20 20 19 18
16 17 17 16 17 14 15 16 15 15 13 13 12 7 3 2 3 3 6 4 2 8 11 17 21 21 27 27 26 27 32 29 29 25 24 23 23 22 21 21 20 20 20
12 14 15 14 17 16 16 16 17 18 16 15 14 14 12 9 6 4 3 13 14 4 8 12 17 21 25 27 29 31 38 32 35 30 27 25 25 25 24 23 22 21 20
11 16 17 16 14 17 18 17 17 18 18 17 17 14 12 11 6 6 4 7 9 3 4 7 14 22 23 26 27 35 40 39 39 36 32 29 27 25 24 24 24 23 23
15 19 18 18 19 18 17 16 14 16 18 16 20 16 12 13 9 11 7 6 2 4 3 5 6 18 22 27 29 40 33 45 43 40 36 31 27 25 24 22 22 22 22
12 16 18 19 18 17 19 16 14 16 16 17 19 17 15 12 11 10 9 8 7 8 12 10 5 13 21 27 31 35 32 38 44 41 39 36 32 26 23 22 21 20 20
11 13 16 17 16 16 17 17 15 15 17 14 13 18 14 11 13 9 10 10 10 9 9 13 13 8 19 17 25 31 31 35 41 42 43 43 37 33 30 25 22 21 20
14 16 17 18 18 16 17 18 18 18 18 17 17 16 18 16 11 13 12 8 11 9 11 6 10 13 13 13 15 29 29 32 33 43 39 37 38 36 35 30 26 23 20
10 6 17 18 19 18 18 18 19 18 19 21 19 18 19 13 17 13 11 16 12 14 11 8 11 8 8 13 12 13 16 20 24 31 33 38 37 37 38 36 29 26 22
10 11 9 11 20 20 18 19 20 20 20 20 20 20 20 19 18 14 13 12 9 9 10 4 4 4 5 8 10 7 10 16 23 34 39 41 40 39 38 40 35 29 24
2 5 7 9 8 13 17 20 21 22 22 21 21 20 20 20 20 19 17 17 14 9 11 11 6 5 7 5 10 11 10 9 11 21 31 34 36 37 36 35 35 31 26
4 5 8 9 9 7 10 17 20 22 20 20 20 21 21 22 24 23 15 17 16 12 10 11 6 4 7 9 14 10 13 10 9 9 9 15 21 25 29 34 32 31 28
3 2 4 6 8 6 11 16 14 12 11 16 17 18 19 19 20 22 22 21 21 19 17 12 10 13 16 12 12 11 11 7 5 9 11 10 21 11 20 25 29 31 30
1 2 3 5 7 7 11 11 14 12 15 16 14 15 14 11 16 17 17 16 18 17 18 16 17 14 11 14 15 13 14 13 11 5 8 7 7 9 15 19 30 32 30
4 4 3 2 5 7 11 11 11 10 12 9 11 14 13 13 12 15 15 14 14 11 12 9 15 14 13 13 17 16 13 7 6 5 5 4 1 3 9 16 29 30 32
3 3 4 5 6 6 8 11 8 6 8 7 6 8 10 11 11 14 11 10 11 10 9 14 7 14 16 20 16 8 7 11 3 3 3 3 3 3 4 6 22 31 31
4 2 4 5 9 7 7 11 8 4 6 3 5 6 13 12 16 18 13 11 10 7 8 7 7 10 16 17 26 15 13 13 6 3 5 5 7 5 3 3 13 22 23
Wind_Direction
159 155 160 163 168 156 164 163 167 176 174 181 189 212 136 131 135 135 139 147 146 146 145 142 139 137 137 133 132 131 129 128 127 125 123 122 124 124 123 120 119 118 120
158 164 161 165 170 166 167 170 173 177 181 176 176 207 144 136 141 140 143 154 154 150 148 149 148 147 145 142 138 140 136 132 130 131 133 133 129 125 122 122 122 122 121
164 166 166 171 171 169 165 164 172 172 175 181 166 181 143 141 143 142 144 156 156 159 154 157 155 153 153 151 150 145 142 140 140 138 137 134 133 133 131 131 127 123 120
168 170 171 174 170 169 170 170 177 179 179 175 162 171 137 144 147 148 149 158 159 164 166 165 163 158 161 162 159 154 151 149 146 144 143 142 140 138 137 132 129 128 130
179 173 175 171 164 168 173 174 179 180 176 167 163 157 135 146 151 152 155 159 164 167 167 175 168 167 164 170 168 164 159 160 157 154 152 150 147 147 142 140 139 137 134
182 166 170 164 163 169 173 176 176 166 174 166 162 155 137 152 155 158 164 166 164 171 175 173 170 171 172 177 172 176 170 168 165 162 161 158 155 153 151 148 148 144 140
178 172 166 160 166 175 178 169 146 157 162 154 120 93 58 151 160 163 168 170 167 168 175 175 171 175 181 185 186 186 179 177 175 173 169 167 164 160 162 158 156 157 156
167 175 169 173 175 172 169 175 172 159 159 173 165 140 129 349 20 176 173 173 174 171 175 176 176 180 186 190 194 197 190 186 183 180 176 174 173 171 169 167 166 160 154
179 182 172 175 179 174 173 183 178 179 179 191 167 155 136 199 131 177 194 181 176 174 179 181 183 186 188 192 196 204 197 191 190 186 182 181 181 176 176 174 172 168 167
186 182 179 171 177 183 186 185 180 181 173 185 174 180 146 143 169 164 242 209 183 178 181 188 191 190 191 190 194 197 203 197 193 191 189 187 186 183 181 180 176 177 179
187 185 184 168 178 187 189 188 186 187 186 187 193 179 145 130 112 136 185 198 240 194 189 187 193 192 193 191 193 196 201 204 191 191 192 192 193 192 189 184 184 180 176
192 188 183 180 181 185 190 193 193 190 193 197 196 194 191 177 181 155 136 192 198 216 191 195 194 195 193 193 193 195 201 201 188 189 192 194 197 194 193 191 189 189 186
191 194 192 191 185 189 192 189 194 197 197 199 200 197 196 202 171 180 129 180 195 189 192 206 203 196 194 194 194 192 199 199 192 190 188 191 196 200 200 198 193 190 190
197 190 188 200 200 194 193 191 192 200 205 202 203 207 198 202 188 189 168 146 130 200 231 202 191 200 193 193 196 192 196 195 190 187 184 191 197 196 199 205 205 197 194
197 198 192 191 197 198 195 190 198 198 203 205 208 205 207 203 204 201 190 180 170 186 213 214 197 197 195 193 195 191 194 193 189 187 182 186 191 193 206 206 209 208 199
203 190 196 195 197 193 193 189 198 202 203 207 210 211 207 203 205 196 198 195 207 197 214 211 213 194 197 192 194 188 197 189 186 184 185 184 188 187 193 201 207 214 202
197 192 191 193 197 198 195 195 196 198 204 206 211 212 216 210 201 210 214 192 209 202 219 202 210 207 197 193 186 194 187 188 191 183 182 186 187 187 186 194 199 203 210
323 255 196 193 197 197 195 199 201 198 201 207 208 210 215 214 218 206 209 216 207 212 208 193 199 191 195 203 181 180 182 187 187 188 184 190 189 189 184 190 192 191 190
348 336 333 221 202 195 198 201 202 203 203 207 208 209 212 209 213 211 207 212 203 207 212 156 163 175 180 172 162 159 171 173 183 191 189 190 190 189 187 183 181 181 182
264 305 338 308 280 228 200 205 206 204 201 203 204 208 211 211 211 212 214 215 214 198 205 211 177 170 177 160 172 170 181 187 188 191 198 196 190 188 178 172 170 178 184
357 352 338 332 311 272 228 227 220 211 205 206 204 208 209 211 211 212 209 210 209 205 198 199 181 161 170 169 186 186 193 185 199 186 185 191 186 183 175 173 171 174 177
312 3 342 317 311 299 292 241 213 216 229 208 210 213 214 206 208 208 209 206 201 199 200 194 187 195 196 191 188 191 186 168 188 204 182 185 177 183 178 182 173 171 174
239 265 298 313 307 304 310 312 266 229 219 220 214 210 218 214 214 218 213 214 210 210 209 191 192 197 189 191 187 187 191 191 198 158 177 172 182 177 169 171 167 167 176
310 307 291 270 292 293 304 305 299 257 244 232 218 225 213 214 202 209 211 211 214 205 199 199 202 196 194 186 187 191 180 135 67 144 146 154 142 133 163 169 169 172 180
267 287 303 304 279 282 287 292 298 273 256 215 196 192 201 198 194 185 196 191 192 206 195 185 170 157 152 162 162 136 148 151 133 177 151 113 156 116 156 160 176 181 182
218 209 277 282 287 283 289 283 284 268 250 190 197 205 200 187 178 180 192 191 201 184 151 124 130 140 150 161 162 176 163 179 155 127 183 143 155 145 161 166 170 182 183